[[{"header":{"parameterUnit":"m.s-1","parameterCategory":2,"la1":30.2991,"la2":30.254,"lo1":-89.0895,"lo2":-89.0444,"dy":0.0017,"dx":0.0017,"nx":28,"ny":28,"refTime":"2025-07-22T21:00:00:Z","depth":"0","parameterNumber":2,"parameterNumberName":"U-component_of_CURRENTS"},"data":[0,0,0,0,0,0,0,0,0,0,0,0,0,0,0,0,0,0,0,0,0,0,0,0,0,0,0,0,0,0,0,0,0,0,0,0,0,0,0,0,0,0,0,0,0,0,0,0,0,0,0,0,0,0,0,0,0,0,-0.1573,-0.1574,0,-0.1619,-0.1619,-0.162,-0.1628,-0.1628,-0.1628,-0.1628,-0.1635,-0.1635,-0.1635,0,0,0,0,0,0,0,0,0,0,0,0,0,-0.143,-0.1433,-0.1573,-0.1574,-0.1575,-0.1619,-0.1619,-0.162,-0.1628,-0.1628,-0.1628,-0.1628,-0.1635,-0.1635,-0.1635,0,0,0,0,0,0,0,0,0,0,0,0,0,-0.1484,-0.1434,-0.1573,-0.1586,-0.1588,-0.1619,-0.1619,-0.162,-0.1628,-0.1628,-0.1628,-0.1628,-0.1634,-0.1635,-0.1635,-0.1644,0,0,-0.1637,-0.1637,0,0,0,0,0,0,0,0,-0.1481,-0.1489,-0.1583,-0.1585,-0.1587,-0.1619,-0.1572,-0.1627,-0.1628,-0.1611,-0.1628,-0.1627,-0.1628,-0.1629,-0.1635,-0.1644,-0.1644,-0.1637,-0.1637,-0.1638,-0.1638,0,0,0,0,0,0,0,-0.1477,-0.1487,-0.1589,-0.1584,-0.1586,-0.1568,-0.1576,-0.1582,-0.1618,-0.1612,-0.1613,-0.1622,-0.1628,-0.1635,-0.1635,-0.1644,-0.1637,-0.1637,-0.1638,-0.1638,-0.1665,-0.1666,0,0,0,0,0,0,-0.148,-0.1484,-0.1588,-0.1591,-0.1535,-0.1571,-0.158,-0.1608,-0.1618,-0.1621,-0.1622,-0.1622,-0.1634,-0.1635,-0.1636,-0.1634,-0.1638,-0.1638,-0.1638,-0.1665,-0.1665,-0.1666,0,0,0,0,0,0,-0.1477,-0.149,-0.1586,-0.1538,-0.155,-0.1575,-0.1605,-0.1609,-0.1616,-0.1627,-0.1628,-0.1626,-0.1634,-0.1635,-0.1643,-0.1635,-0.1638,-0.1639,-0.1664,-0.1665,-0.1666,-0.1638,0,0,0,0,0,0,-0.1473,-0.1489,-0.1505,-0.154,-0.1553,-0.1601,-0.1606,-0.161,-0.1622,-0.1623,-0.163,-0.1631,-0.1634,-0.1642,-0.1643,-0.1635,-0.1639,-0.1664,-0.1665,-0.1666,-0.1638,-0.1638,-0.1637,0,0,0,0,0,-0.1468,-0.1492,-0.1506,-0.1518,-0.1576,-0.1601,-0.1606,-0.162,-0.1623,-0.1625,-0.1633,-0.1631,-0.1648,-0.1643,-0.1644,-0.1636,-0.1664,-0.1665,-0.1665,-0.1639,-0.1638,-0.1637,0,0,0,0,0,0,-0.1433,-0.1497,-0.1512,-0.1553,-0.1574,-0.1603,-0.161,-0.162,-0.163,-0.1629,-0.1636,-0.1637,-0.164,-0.1648,-0.1643,-0.1649,-0.1656,-0.1657,-0.1635,-0.1634,-0.1633,-0.1613,-0.164,0,0,0,0,0,-0.1435,-0.1473,-0.1517,-0.1545,-0.1559,-0.1584,-0.1595,-0.1606,-0.1622,-0.1626,-0.1632,-0.1641,-0.1646,-0.1648,-0.1655,-0.1659,-0.1642,-0.1657,-0.1656,-0.1655,-0.1641,-0.1632,-0.1628,-0.1669,-0.1669,-0.1669,0,0,-0.1427,-0.1468,-0.1487,-0.154,-0.1558,-0.157,-0.1589,-0.1607,-0.1608,-0.1625,-0.1625,-0.1637,-0.1648,-0.165,-0.1653,-0.1655,-0.163,-0.1656,-0.1655,-0.1642,-0.1632,-0.1628,-0.1624,-0.167,-0.167,-0.1669,0,0,-0.1416,-0.1467,-0.1485,-0.1506,-0.154,-0.156,-0.1565,-0.1594,-0.16,-0.1608,-0.1618,-0.1621,-0.1638,-0.1635,-0.1638,-0.1639,-0.1627,-0.1653,-0.1629,-0.162,-0.1616,-0.1612,-0.1558,-0.155,-0.1652,-0.1652,-0.1652,0,-0.1392,-0.144,-0.1487,-0.15,-0.1519,-0.1553,-0.156,-0.157,-0.1593,-0.1599,-0.1604,-0.1619,-0.1623,-0.1619,-0.1619,-0.1632,-0.162,-0.1628,-0.1616,-0.1613,-0.1609,-0.1555,-0.1547,-0.1651,-0.1651,-0.1651,-0.1651,0,-0.1389,-0.1424,-0.1435,-0.1472,-0.1491,-0.1509,-0.1535,-0.1544,-0.156,-0.1572,-0.1577,-0.1582,-0.1588,-0.1595,-0.1604,-0.1589,-0.1583,-0.1615,-0.1612,-0.1603,-0.1547,-0.1538,-0.1649,-0.1649,-0.165,-0.165,0,0,-0.1322,-0.1418,-0.1414,-0.1444,-0.1485,-0.1504,-0.1506,-0.153,-0.1528,-0.1543,-0.1534,-0.1543,-0.155,-0.1553,-0.1564,-0.1555,-0.1507,-0.1575,-0.1575,-0.1508,-0.1459,-0.1172,-0.1134,-0.1549,-0.1548,-0.1547,-0.1418,0,-0.1295,-0.1347,-0.1387,-0.1412,-0.1445,-0.148,-0.1478,-0.1498,-0.1512,-0.1508,-0.1515,-0.1509,-0.1533,-0.1528,-0.1524,-0.152,-0.1489,-0.1537,-0.1489,-0.1486,-0.1221,-0.1116,-0.0758,-0.0588,-0.141,-0.1408,-0.1407,0,-0.1251,-0.1312,-0.1358,-0.1422,-0.1431,-0.1442,-0.1467,-0.147,-0.1474,-0.1476,-0.1475,-0.1477,-0.1454,-0.1478,-0.1441,-0.1477,-0.1456,-0.1448,-0.1444,-0.1176,-0.1181,-0.0737,-0.0541,-0.0466,-0.1394,-0.1395,-0.1396,0,-0.1204,-0.1268,-0.1325,-0.1348,-0.1424,-0.1436,-0.1457,-0.1468,-0.1453,-0.1453,-0.1413,-0.1426,-0.1368,-0.1395,-0.1336,-0.1408,-0.1268,-0.137,-0.1084,-0.1064,-0.0741,-0.0692,-0.0446,-0.1324,-0.1324,-0.1325,-0.1325,0,-0.1163,-0.1193,-0.1317,-0.1355,-0.1392,-0.1429,-0.1435,-0.1449,-0.1422,-0.1317,-0.139,-0.1248,-0.1343,-0.1261,-0.1293,-0.109,-0.1222,-0.102,-0.099,-0.0716,-0.0668,-0.0577,-0.0639,-0.132,-0.1321,-0.1322,-0.1323,0,-0.1104,-0.1177,-0.1262,-0.1369,-0.1387,-0.1418,-0.1425,-0.1369,-0.1377,-0.1229,-0.1204,-0.1111,-0.0924,-0.0974,-0.0933,-0.0932,-0.0746,-0.0761,-0.0391,-0.0316,0.0026,-0.0049,0.0037,0.0058,-0.0434,-0.0426,-0.0419,0,-0.107,-0.1136,-0.1289,-0.1292,-0.1342,-0.1379,-0.133,-0.1353,-0.124,-0.105,-0.0901,-0.0721,-0.0424,-0.0272,-0.0209,-0.0144,-0.0325,0.0126,0.0069,0.0179,0.011,-0.0151,-0.0166,0.049,0.0504,0.0515,0.0525,0,-0.106,-0.115,-0.1232,-0.1224,-0.1206,-0.1158,-0.1079,-0.0996,-0.0874,-0.0719,-0.0325,-0.0088,0.0213,0.0569,0.0623,0.0628,0.0251,0.0367,0.0372,0.0817,0.0654,0.0647,0.0256,0.0625,0.0615,0.0608,0.0602,0.0598,-0.1057,-0.1097,-0.1158,-0.1107,-0.1045,-0.081,-0.0706,-0.0529,-0.0283,0.0068,0.0217,0.0616,0.1054,0.13,0.1287,0.1466,0.1073,0.1457,0.1344,0.1052,0.1144,0.1028,0.1491,0.1487,0.1482,0.1479,0.1475,0,-0.1007,-0.1,-0.0972,-0.0857,-0.0635,-0.0659,-0.0406,-0.0233,0.0155,0.0459,0.0816,0.1398,0.1906,0.2046,0.2364,0.2394,0.2129,0.2324,0.2031,0.1949,0.1848,0.1973,0.2699,0.2699,0.2699,0.2699,0.2699,0.2699,-0.0973,-0.091,-0.0841,-0.043,-0.0312,0.0008,0.0182,0.0393,0.0605,0.1084,0.1376,0.1573,0.1938,0.262,0.2919,0.29,0.2613,0.2702,0.2367,0.2359,0.2265,0.2175,0.2282,0.3061,0.3061,0.2533,0.253,0.2528]},{"header":{"parameterUnit":"m.s-1","parameterCategory":2,"la1":30.2991,"la2":30.254,"lo1":-89.0895,"lo2":-89.0444,"dy":0.0017,"dx":0.0017,"nx":28,"ny":28,"refTime":"2025-07-22T21:00:00:Z","depth":"0","parameterNumber":3,"parameterNumberName":"V-component_of_CURRENTS"},"data":[0,0,0,0,0,0,0,0,0,0,0,0,0,0,0,0,0,0,0,0,0,0,0,0,0,0,0,0,0,0,0,0,0,0,0,0,0,0,0,0,0,0,0,0,0,0,0,0,0,0,0,0,0,0,0,0,0,0,-0.1547,-0.1546,0,-0.1465,-0.1464,-0.1463,-0.1408,-0.1408,-0.1407,-0.1407,-0.1332,-0.133,-0.1329,0,0,0,0,0,0,0,0,0,0,0,0,0,-0.1576,-0.1576,-0.1547,-0.1546,-0.1545,-0.1465,-0.1464,-0.1463,-0.1408,-0.1408,-0.1407,-0.1407,-0.1332,-0.133,-0.1328,0,0,0,0,0,0,0,0,0,0,0,0,0,-0.1536,-0.1577,-0.1547,-0.1508,-0.1504,-0.1465,-0.1464,-0.1463,-0.1408,-0.1408,-0.1407,-0.1407,-0.1333,-0.1331,-0.1328,-0.1323,0,0,-0.132,-0.1319,0,0,0,0,0,0,0,0,-0.1538,-0.1535,-0.1515,-0.1511,-0.1506,-0.1447,-0.1447,-0.1416,-0.1408,-0.1444,-0.1407,-0.1406,-0.1371,-0.1366,-0.1351,-0.132,-0.1317,-0.132,-0.1319,-0.1318,-0.1317,0,0,0,0,0,0,0,-0.1541,-0.1538,-0.1514,-0.1514,-0.1509,-0.1468,-0.1462,-0.144,-0.1412,-0.1441,-0.1437,-0.1429,-0.1369,-0.1353,-0.1349,-0.1315,-0.132,-0.1318,-0.1317,-0.1316,-0.1282,-0.1282,0,0,0,0,0,0,-0.1557,-0.1541,-0.1517,-0.1512,-0.1522,-0.1468,-0.1461,-0.1466,-0.1412,-0.1403,-0.1429,-0.1426,-0.1358,-0.1352,-0.1346,-0.1361,-0.1318,-0.1315,-0.1314,-0.1281,-0.1282,-0.1283,0,0,0,0,0,0,-0.1558,-0.1556,-0.152,-0.1524,-0.1516,-0.1469,-0.1474,-0.1465,-0.1444,-0.1403,-0.1394,-0.1417,-0.1357,-0.1349,-0.1335,-0.1357,-0.1314,-0.1312,-0.128,-0.1281,-0.1282,-0.1377,0,0,0,0,0,0,-0.156,-0.1558,-0.1564,-0.1526,-0.1517,-0.1503,-0.1474,-0.1463,-0.144,-0.1436,-0.139,-0.1382,-0.1356,-0.1339,-0.1333,-0.1353,-0.131,-0.128,-0.1281,-0.1282,-0.1373,-0.1381,-0.1388,0,0,0,0,0,-0.1561,-0.1576,-0.1565,-0.1562,-0.1529,-0.1503,-0.1495,-0.1458,-0.144,-0.1436,-0.1411,-0.1383,-0.1342,-0.1338,-0.133,-0.135,-0.1279,-0.1281,-0.1282,-0.137,-0.138,-0.1388,0,0,0,0,0,0,-0.1587,-0.1571,-0.1558,-0.1566,-0.1539,-0.1494,-0.1487,-0.146,-0.1435,-0.1432,-0.1392,-0.1383,-0.1379,-0.1349,-0.1345,-0.1342,-0.1305,-0.1305,-0.1375,-0.1384,-0.1391,-0.1411,-0.1308,0,0,0,0,0,-0.1599,-0.1611,-0.1577,-0.1584,-0.1573,-0.1529,-0.1513,-0.1489,-0.1461,-0.1448,-0.1421,-0.1394,-0.1378,-0.1369,-0.1346,-0.1346,-0.1308,-0.1351,-0.1359,-0.1365,-0.1376,-0.1348,-0.1354,-0.1287,-0.1287,-0.1287,0,0,-0.1613,-0.1603,-0.161,-0.1591,-0.1566,-0.1565,-0.1518,-0.1499,-0.1505,-0.1446,-0.1449,-0.1418,-0.1382,-0.1385,-0.138,-0.1363,-0.1361,-0.1367,-0.1373,-0.138,-0.135,-0.1357,-0.1362,-0.1288,-0.1288,-0.1288,0,0,-0.1648,-0.1636,-0.1657,-0.1639,-0.161,-0.1587,-0.1584,-0.1546,-0.1534,-0.1531,-0.1493,-0.1478,-0.1452,-0.1435,-0.1423,-0.1455,-0.14,-0.1443,-0.1501,-0.1474,-0.1479,-0.1484,-0.1432,-0.1432,-0.1449,-0.1449,-0.1449,0,-0.1661,-0.168,-0.1656,-0.1664,-0.165,-0.1604,-0.161,-0.1601,-0.1566,-0.1557,-0.1547,-0.1504,-0.1481,-0.1476,-0.1499,-0.1474,-0.1439,-0.1474,-0.1485,-0.1489,-0.1492,-0.1438,-0.1436,-0.1454,-0.1453,-0.1453,-0.1453,0,-0.1714,-0.1717,-0.1724,-0.1727,-0.1714,-0.1706,-0.1687,-0.1679,-0.166,-0.1643,-0.163,-0.1599,-0.1561,-0.1566,-0.1552,-0.1559,-0.1518,-0.1498,-0.1468,-0.1505,-0.1445,-0.1441,-0.1461,-0.1459,-0.1458,-0.1456,0,0,-0.1761,-0.1761,-0.1762,-0.1737,-0.1738,-0.1708,-0.1745,-0.173,-0.1698,-0.1715,-0.1681,-0.1705,-0.1662,-0.1645,-0.1611,-0.1616,-0.1615,-0.1581,-0.1577,-0.1538,-0.1536,-0.1421,-0.1404,-0.1597,-0.1597,-0.1597,-0.1482,0,-0.1798,-0.1807,-0.1816,-0.1804,-0.1785,-0.1766,-0.1771,-0.1757,-0.1738,-0.1696,-0.1703,-0.1644,-0.1697,-0.1637,-0.1675,-0.1605,-0.1611,-0.1647,-0.1499,-0.1494,-0.1394,-0.1399,-0.1247,-0.1124,-0.1477,-0.1477,-0.1476,0,-0.1851,-0.1828,-0.1831,-0.177,-0.176,-0.1752,-0.1697,-0.1691,-0.1667,-0.1644,-0.1647,-0.1613,-0.1622,-0.1633,-0.1623,-0.164,-0.1611,-0.1584,-0.1578,-0.1437,-0.1372,-0.1145,-0.1103,-0.1173,-0.1469,-0.147,-0.147,0,-0.1848,-0.1833,-0.1816,-0.1804,-0.1751,-0.1732,-0.1696,-0.1668,-0.1578,-0.1575,-0.1471,-0.1551,-0.1445,-0.1523,-0.15,-0.1548,-0.1455,-0.1493,-0.1371,-0.136,-0.1184,-0.1158,-0.1198,-0.1487,-0.1487,-0.1488,-0.1488,0,-0.1872,-0.1851,-0.179,-0.1766,-0.1663,-0.1668,-0.155,-0.1539,-0.1442,-0.1264,-0.1397,-0.1228,-0.1404,-0.1364,-0.1455,-0.1379,-0.1413,-0.1375,-0.1326,-0.1209,-0.1188,-0.1201,-0.1235,-0.1483,-0.1484,-0.1485,-0.1486,0,-0.1874,-0.1867,-0.1785,-0.17,-0.1653,-0.156,-0.1376,-0.1246,-0.1219,-0.0983,-0.0946,-0.093,-0.089,-0.1055,-0.1094,-0.1192,-0.1226,-0.1171,-0.1018,-0.0954,-0.0949,-0.099,-0.1063,-0.1148,-0.1047,-0.1044,-0.1041,0,-0.1877,-0.1857,-0.1689,-0.1537,-0.1478,-0.1329,-0.1173,-0.1127,-0.0939,-0.073,-0.0549,-0.0492,-0.0351,-0.0439,-0.0663,-0.0819,-0.099,-0.0765,-0.0856,-0.0922,-0.0933,-0.1123,-0.1208,-0.0653,-0.0647,-0.0642,-0.0638,0,-0.1835,-0.1779,-0.1656,-0.1332,-0.1135,-0.0925,-0.0702,-0.053,-0.0395,-0.0217,0.0097,0.0202,0.0126,0.0068,-0.0208,-0.0357,-0.082,-0.0666,-0.0772,-0.0659,-0.0827,-0.0889,-0.0758,-0.0595,-0.0599,-0.0603,-0.0605,-0.0607,-0.175,-0.1589,-0.1354,-0.1029,-0.0785,-0.0455,-0.0227,-0.0008,0.0283,0.0638,0.0658,0.0901,0.0746,0.0396,0.0093,-0.0289,-0.0458,-0.0365,-0.0415,-0.0612,-0.0692,-0.0461,-0.0226,-0.0228,-0.023,-0.0231,-0.0233,0,-0.1542,-0.1325,-0.1017,-0.0587,-0.0216,-0.0185,0.0185,0.0425,0.0806,0.1042,0.1305,0.1535,0.1297,0.087,0.0393,0.0062,-0.0304,-0.0142,-0.0384,-0.0493,-0.0265,-0.0244,0.0045,0.0045,0.0045,0.0045,0.0045,0.0045,-0.1394,-0.1024,-0.0805,-0.0107,0.0194,0.0671,0.0901,0.1133,0.1346,0.1769,0.2021,0.2164,0.2009,0.1134,0.0456,0.0209,-0.0203,-0.0247,-0.0512,-0.0308,-0.0336,-0.0363,-0.0359,-0.0099,-0.0099,-0.0777,-0.0781,-0.0785]}],[{"header":{"parameterUnit":"m.s-1","parameterCategory":2,"la1":30.2991,"la2":30.254,"lo1":-89.0895,"lo2":-89.0444,"dy":0.0017,"dx":0.0017,"nx":28,"ny":28,"refTime":"2025-07-22T21:00:00:Z","depth":"2","parameterNumber":2,"parameterNumberName":"U-component_of_CURRENTS"},"data":[0,0,0,0,0,0,0,0,0,0,0,0,0,0,0,0,0,0,0,0,0,0,0,0,0,0,0,0,0,0,0,0,0,0,0,0,0,0,0,0,0,0,0,0,0,0,0,0,0,0,0,0,0,0,0,0,0,0,-0.0024,-0.0024,0,-0.0005,-0.0004,-0.0004,-0.0073,-0.0075,-0.0077,-0.0079,-0.0143,-0.0143,-0.0142,0,0,0,0,0,0,0,0,0,0,0,0,0,-0.016,-0.0157,-0.0024,-0.0024,-0.0023,-0.0005,-0.0004,-0.0004,-0.0073,-0.0075,-0.0077,-0.008,-0.0143,-0.0143,-0.0142,0,0,0,0,0,0,0,0,0,0,0,0,0,-0.0118,-0.0156,-0.0024,-0.0054,-0.0057,-0.0005,-0.0004,-0.0004,-0.0072,-0.0075,-0.0078,-0.0081,-0.0143,-0.0143,-0.0142,-0.0083,0,0,-0.0142,-0.0142,0,0,0,0,0,0,0,0,-0.012,-0.0113,-0.005,-0.0052,-0.0055,-0.0043,-0.0076,-0.0034,-0.0071,-0.0067,-0.0079,-0.0082,-0.0114,-0.0116,-0.0107,-0.0086,-0.0089,-0.0142,-0.0142,-0.0142,-0.0142,0,0,0,0,0,0,0,-0.0123,-0.0114,-0.0017,-0.0049,-0.0052,-0.0082,-0.0079,-0.0068,-0.0077,-0.0068,-0.0073,-0.0068,-0.0117,-0.0107,-0.0109,-0.009,-0.0142,-0.0142,-0.0142,-0.0142,-0.0076,-0.0074,0,0,0,0,0,0,-0.0117,-0.0116,-0.0018,-0.0017,-0.0094,-0.0077,-0.0074,-0.0045,-0.0076,-0.0082,-0.0065,-0.0071,-0.0106,-0.0109,-0.0112,-0.011,-0.0142,-0.0142,-0.0142,-0.0077,-0.0076,-0.0074,0,0,0,0,0,0,-0.0119,-0.0107,-0.0019,-0.0067,-0.0058,-0.0071,-0.0038,-0.0043,-0.0044,-0.0072,-0.0081,-0.0064,-0.0108,-0.0112,-0.0105,-0.0111,-0.0142,-0.0141,-0.0079,-0.0077,-0.0075,-0.0063,0,0,0,0,0,0,-0.0123,-0.0107,-0.0086,-0.0065,-0.0055,0.0006,-0.0036,-0.004,-0.0036,-0.0043,-0.0073,-0.0082,-0.0111,-0.0105,-0.0105,-0.0111,-0.0141,-0.0082,-0.0078,-0.0075,-0.0066,-0.0061,-0.0056,0,0,0,0,0,-0.0127,-0.0078,-0.0084,-0.0073,-0.0023,0.0007,0.001,-0.0012,-0.0033,-0.0025,-0.0044,-0.0082,-0.0086,-0.0103,-0.0103,-0.011,-0.0083,-0.0079,-0.0076,-0.0068,-0.0062,-0.0057,0,0,0,0,0,0,-0.0132,-0.0079,-0.0086,-0.0026,-0.0017,-0.0005,0.001,-0.0002,-0.0005,-0.0017,-0.0052,-0.006,-0.0056,-0.0066,-0.0084,-0.0077,-0.0093,-0.0089,-0.0087,-0.0081,-0.0077,-0.0092,-0.0141,0,0,0,0,0,-0.0118,-0.0063,-0.0042,0.0004,0.0013,0.0013,0.0023,0.001,0.0012,0.0006,-0.0013,-0.0028,-0.0033,-0.0046,-0.0044,-0.0033,-0.0035,-0.0037,-0.0032,-0.0028,-0.0037,-0.0051,-0.005,-0.0062,-0.0062,-0.0062,0,0,-0.0107,-0.0071,-0.0042,0.0006,0.0014,0.0023,0.0011,0.0033,0.0027,0.0003,-0.0003,-0.0003,-0.002,-0.0017,-0.0018,-0.0036,-0.0012,-0.0024,-0.0021,-0.0032,-0.0048,-0.0047,-0.0046,-0.0059,-0.006,-0.006,0,0,-0.0069,-0.0027,0.0016,0.0024,0.0044,0.0046,0.0052,0.0065,0.0055,0.0065,0.0042,0.0044,0.0037,0.0019,0.0009,0.0051,0.0022,0.0049,0.0042,0.0029,0.0028,0.0028,0.0075,0.0079,0.0037,0.0037,0.0038,0,-0.0071,-0.0023,0.0027,0.0047,0.0034,0.0053,0.0047,0.0065,0.0072,0.0059,0.0059,0.005,0.0051,0.003,0.0045,0.0056,0.006,0.0014,0.0031,0.003,0.0029,0.0077,0.0081,0.0038,0.0038,0.0038,0.0038,0,-0.0013,-0.0005,0.0019,0.0044,0.0051,0.0055,0.0067,0.0077,0.0071,0.0068,0.0062,0.0074,0.0049,0.0066,0.0067,0.006,0.0073,0.0045,0.0006,0.003,0.0081,0.0085,0.004,0.004,0.0039,0.0039,0,0,0.0041,0.0048,0.0052,0.0002,0.0032,0.0024,0.0046,0.0038,0.0021,0.0047,0.002,0.0044,0.0041,0.0034,0.0038,0.0042,0.0077,0.004,0.0039,0.0071,0.0085,0.0276,0.0299,0.0033,0.0033,0.0032,0.014,0,0.0042,0.0016,0.0055,0.0002,-0.0044,-0.0023,-0.0019,-0.0015,-0.0003,-0.0006,0.0013,0.0006,0.0029,0.0018,0.0025,0.0071,0.0078,0.0053,0.0071,0.0073,0.0224,0.0306,0.015,0.0247,0.0143,0.0143,0.0144,0,0.007,0.0028,-0.0044,-0.0112,-0.0119,-0.0129,-0.0164,-0.0151,-0.0118,-0.0105,-0.0097,-0.0066,-0.0027,-0.0024,0.0041,0.0019,0.0047,0.0082,0.0086,0.0254,0.027,0.0198,0.0256,0.0149,0.0149,0.0148,0.0148,0,-0.0013,-0.0044,-0.0137,-0.016,-0.0204,-0.0229,-0.023,-0.0205,-0.0166,-0.017,-0.0118,-0.0117,-0.0057,-0.0052,0.0085,0.0035,0.0181,0.0108,0.0303,0.0318,0.0188,0.0194,0.0116,0.0116,0.0116,0.0115,0.0115,0,-0.007,-0.0145,-0.0199,-0.0268,-0.0327,-0.0337,-0.0351,-0.0341,-0.0276,-0.0187,-0.0184,-0.0077,-0.0061,0.0056,0.0088,0.0277,0.0181,0.0336,0.036,0.0201,0.0207,0.0104,0.0101,0.0119,0.0118,0.0118,0.0117,0,-0.0178,-0.0212,-0.0322,-0.0388,-0.0385,-0.0442,-0.036,-0.0317,-0.0298,-0.017,-0.0147,-0.0016,0.0157,0.0227,0.0308,0.0352,0.0449,0.0516,0.0389,0.04,0.0579,0.0575,0.0711,0.0719,0.0725,0.0731,0.0735,0,-0.0254,-0.0335,-0.04,-0.0373,-0.0399,-0.0426,-0.0357,-0.0334,-0.0238,-0.0077,0.0029,0.0205,0.0391,0.0613,0.0693,0.0798,0.0701,0.0703,0.0586,0.0632,0.064,0.0626,0.0615,0.0411,0.0413,0.0414,0.0415,0,-0.0385,-0.0404,-0.0439,-0.0372,-0.0327,-0.0286,-0.0205,-0.0144,-0.0045,0.0062,0.0285,0.0418,0.0678,0.0778,0.0934,0.0933,0.0673,0.0746,0.0773,0.0339,0.0372,0.0374,0.0366,0.0426,0.0425,0.0424,0.0424,0.0423,-0.0423,-0.0408,-0.0365,-0.0287,-0.0224,-0.0118,-0.0067,0.0056,0.0179,0.035,0.0466,0.0623,0.0684,0.0922,0.0964,0.0952,0.098,0.0802,0.0785,0.077,0.077,0.0819,0.0958,0.096,0.0962,0.0963,0.0964,0,-0.0376,-0.0301,-0.0226,-0.0119,-0.002,-0.0016,0.0107,0.0161,0.0304,0.046,0.0608,0.0644,0.0747,0.0812,0.0854,0.0916,0.0752,0.082,0.0531,0.0522,0.0513,0.0487,0.0607,0.0607,0.0607,0.0606,0,0,-0.0321,-0.0186,-0.0099,0.0085,0.0149,0.0266,0.0321,0.0364,0.0439,0.0543,0.0613,0.0722,0.0786,0.0712,0.0701,0.0673,0.0575,0.0624,0.0894,0.0541,0.0532,0.048,0.0433,0,0,0,0,0]},{"header":{"parameterUnit":"m.s-1","parameterCategory":2,"la1":30.2991,"la2":30.254,"lo1":-89.0895,"lo2":-89.0444,"dy":0.0017,"dx":0.0017,"nx":28,"ny":28,"refTime":"2025-07-22T21:00:00:Z","depth":"2","parameterNumber":3,"parameterNumberName":"V-component_of_CURRENTS"},"data":[0,0,0,0,0,0,0,0,0,0,0,0,0,0,0,0,0,0,0,0,0,0,0,0,0,0,0,0,0,0,0,0,0,0,0,0,0,0,0,0,0,0,0,0,0,0,0,0,0,0,0,0,0,0,0,0,0,0,-0.0156,-0.0156,0,-0.0111,-0.011,-0.011,-0.006,-0.0059,-0.0058,-0.0058,0.0091,0.0094,0.0097,0,0,0,0,0,0,0,0,0,0,0,0,0,-0.0257,-0.0255,-0.0157,-0.0156,-0.0156,-0.0111,-0.011,-0.011,-0.006,-0.0059,-0.0058,-0.0058,0.0089,0.0093,0.0097,0,0,0,0,0,0,0,0,0,0,0,0,0,-0.0211,-0.0254,-0.0157,-0.0126,-0.0123,-0.0111,-0.011,-0.0109,-0.006,-0.0059,-0.0058,-0.0057,0.0088,0.0093,0.0098,0.011,0,0,0.0113,0.0116,0,0,0,0,0,0,0,0,-0.0214,-0.0207,-0.0131,-0.0128,-0.0125,-0.0091,-0.0091,-0.0031,-0.006,-0.0083,-0.0058,-0.0057,0.0038,0.0047,0.0054,0.0117,0.0123,0.0114,0.0117,0.0119,0.0121,0,0,0,0,0,0,0,-0.0217,-0.0209,-0.0137,-0.0131,-0.0127,-0.0134,-0.0126,-0.008,-0.0026,-0.0081,-0.0077,-0.0074,0.0041,0.0049,0.0058,0.0126,0.0114,0.0118,0.0121,0.0123,0.0183,0.0181,0,0,0,0,0,0,-0.0222,-0.0212,-0.0139,-0.0136,-0.0169,-0.0133,-0.0124,-0.0102,-0.0028,-0.0017,-0.0075,-0.0072,0.0039,0.0052,0.0063,0.0059,0.0119,0.0124,0.0127,0.0184,0.0182,0.0181,0,0,0,0,0,0,-0.0224,-0.0215,-0.0141,-0.0175,-0.0166,-0.0132,-0.0108,-0.0102,-0.0087,-0.0025,-0.0012,-0.0066,0.0041,0.0056,0.0092,0.0067,0.0126,0.0131,0.0186,0.0184,0.0182,0.0067,0,0,0,0,0,0,-0.0227,-0.0216,-0.0204,-0.0175,-0.0165,-0.0132,-0.0109,-0.0101,-0.0087,-0.0082,-0.0013,0.0001,0.0043,0.0084,0.0097,0.0075,0.0135,0.0188,0.0185,0.0182,0.0072,0.0061,0.0051,0,0,0,0,0,-0.023,-0.021,-0.0203,-0.0195,-0.0148,-0.0133,-0.0128,-0.0101,-0.0088,-0.0083,-0.0048,-0.0001,0.0076,0.0087,0.0103,0.0081,0.0189,0.0186,0.0182,0.0077,0.0063,0.0051,0,0,0,0,0,0,-0.0244,-0.0202,-0.0194,-0.0161,-0.0152,-0.0124,-0.0115,-0.0103,-0.0074,-0.0065,-0.001,0.0006,0.0022,0.0069,0.008,0.0088,0.0137,0.0137,0.0052,0.0039,0.0029,0.0019,0.0139,0,0,0,0,0,-0.0245,-0.0217,-0.0193,-0.017,-0.0165,-0.0144,-0.0135,-0.012,-0.0093,-0.0079,-0.0039,-0.0001,0.0018,0.0044,0.0075,0.0092,0.0147,0.0084,0.0074,0.0064,0.0066,0.0124,0.0119,0.017,0.017,0.017,0,0,-0.0245,-0.0219,-0.0203,-0.0173,-0.016,-0.016,-0.0135,-0.0121,-0.0129,-0.0065,-0.0056,-0.0031,0.0013,0.0017,0.003,0.0058,0.0075,0.006,0.0052,0.0059,0.012,0.0116,0.0111,0.0168,0.0168,0.0169,0,0,-0.0237,-0.0209,-0.019,-0.0188,-0.0173,-0.0166,-0.0165,-0.0145,-0.0141,-0.0137,-0.0107,-0.0104,-0.0052,-0.0045,-0.0031,-0.0078,0.0013,-0.0062,-0.0114,-0.0059,-0.0062,-0.0064,-0.0016,-0.0013,-0.0062,-0.0063,-0.0063,0,-0.0243,-0.0209,-0.0187,-0.0183,-0.0178,-0.0173,-0.0167,-0.0178,-0.0153,-0.014,-0.0144,-0.0104,-0.0092,-0.0083,-0.0129,-0.0104,-0.0045,-0.0071,-0.0072,-0.0073,-0.0073,-0.0023,-0.0018,-0.0069,-0.0068,-0.0067,-0.0067,0,-0.0223,-0.0213,-0.0206,-0.0196,-0.0192,-0.0187,-0.0197,-0.0194,-0.0196,-0.0196,-0.0189,-0.019,-0.0148,-0.0178,-0.018,-0.0181,-0.0132,-0.0096,-0.0039,-0.0085,-0.0029,-0.0022,-0.0077,-0.0075,-0.0073,-0.0072,0,0,-0.02,-0.019,-0.0193,-0.0175,-0.0194,-0.017,-0.0202,-0.0196,-0.0161,-0.021,-0.0167,-0.0243,-0.0223,-0.021,-0.0207,-0.0212,-0.0214,-0.017,-0.0164,-0.0122,-0.0079,-0.0166,-0.0165,-0.016,-0.0159,-0.0158,-0.0045,0,-0.0195,-0.0178,-0.018,-0.0167,-0.0154,-0.016,-0.0161,-0.0161,-0.016,-0.0123,-0.0177,-0.0136,-0.0238,-0.0195,-0.0236,-0.0189,-0.0196,-0.0247,-0.004,-0.0034,-0.0106,-0.0161,-0.0203,-0.0116,-0.0037,-0.0036,-0.0035,0,-0.0189,-0.0163,-0.0152,-0.0104,-0.0092,-0.0085,-0.0031,-0.0028,-0.0018,-0.0004,-0.0022,-0.0024,-0.0068,-0.0119,-0.0125,-0.0138,-0.0133,-0.0128,-0.0121,-0.0154,-0.0109,-0.0054,-0.0105,-0.0022,-0.0023,-0.0024,-0.0024,0,-0.0173,-0.0145,-0.0121,-0.0118,-0.0075,-0.0045,-0.001,0.0013,0.0046,0.0095,0.0141,0.01,0.0117,0.0089,0.0002,-0.0011,0.0019,0.0036,-0.0044,-0.0047,-0.0022,-0.0027,0.0045,0.0045,0.0045,0.0045,0.0044,0,-0.0178,-0.0158,-0.0096,-0.0083,0.0006,0.0023,0.0111,0.0145,0.0197,0.0236,0.0219,0.0231,0.0171,0.0148,0.0078,0.0009,0.0088,-0.0068,-0.0033,-0.0069,-0.0079,0.006,0.006,0.0049,0.0048,0.0047,0.0046,0,-0.0203,-0.0183,-0.0125,-0.0037,0.0002,0.0072,0.0174,0.0228,0.0298,0.0353,0.0374,0.0359,0.0326,0.0248,0.0227,0.0121,0.008,0.0044,-0.002,-0.0,-0.0031,-0.0038,0.0007,0.0004,0.0002,0.0,-0.0001,0,-0.0228,-0.0204,-0.0084,-0.0032,0.0006,0.0112,0.0168,0.0258,0.0293,0.0389,0.0396,0.0413,0.0326,0.0255,0.0118,0.0026,0.0058,-0.0036,-0.0112,-0.0069,-0.0038,-0.0042,-0.0046,-0.0104,-0.0106,-0.0108,-0.0109,0,-0.0243,-0.02,-0.0139,-0.0034,0.0041,0.0134,0.0214,0.0252,0.0331,0.0377,0.038,0.0338,0.0246,0.0098,-0.0012,-0.0088,-0.0034,-0.0078,0.004,-0.0126,-0.0175,-0.0145,-0.0144,-0.0125,-0.0123,-0.0122,-0.0121,-0.0121,-0.0252,-0.0199,-0.012,-0.003,0.0054,0.0114,0.0174,0.0222,0.027,0.0332,0.0297,0.0263,0.0155,-0.0049,-0.015,-0.0209,-0.0201,-0.02,-0.0192,-0.0183,-0.0255,-0.0309,-0.0296,-0.0295,-0.0295,-0.0294,-0.0294,0,-0.0254,-0.0201,-0.0122,-0.0024,0.0025,0.0104,0.0174,0.021,0.0229,0.0269,0.026,0.0113,-0.0034,-0.0091,-0.0244,-0.0357,-0.0352,-0.0333,-0.0285,-0.0272,-0.026,-0.0333,-0.0395,-0.0395,-0.0395,-0.0395,0,0,-0.0255,-0.0199,-0.016,-0.0091,-0.0012,0.0075,0.0119,0.0165,0.0197,0.0197,0.0201,0.0152,-0.0002,-0.0104,-0.0238,-0.0297,-0.0255,-0.0318,-0.0238,-0.0157,-0.0142,-0.0198,-0.03,0,0,0,0,0]}],[{"header":{"parameterUnit":"m.s-1","parameterCategory":2,"la1":30.2991,"la2":30.254,"lo1":-89.0895,"lo2":-89.0444,"dy":0.0017,"dx":0.0017,"nx":28,"ny":28,"refTime":"2025-07-22T21:00:00:Z","depth":"4","parameterNumber":2,"parameterNumberName":"U-component_of_CURRENTS"},"data":[0,0,0,0,0,0,0,0,0,0,0,0,0,0,0,0,0,0,0,0,0,0,0,0,0,0,0,0,0,0,0,0,0,0,0,0,0,0,0,0,0,0,0,0,0,0,0,0,0,0,0,0,0,0,0,0,0,0,-0.0102,-0.0101,0,-0.0082,-0.0082,-0.0082,-0.0082,-0.0082,-0.0082,-0.0082,-0.0064,-0.0063,-0.0062,0,0,0,0,0,0,0,0,0,0,0,0,0,-0.0131,-0.0131,-0.0102,-0.0101,-0.0101,-0.0082,-0.0082,-0.0082,-0.0082,-0.0082,-0.0082,-0.0082,-0.0064,-0.0063,-0.0062,0,0,0,0,0,0,0,0,0,0,0,0,0,-0.0117,-0.013,-0.0102,-0.0098,-0.0097,-0.0082,-0.0082,-0.0082,-0.0082,-0.0082,-0.0082,-0.0082,-0.0064,-0.0063,-0.0062,-0.0052,0,0,-0.0059,-0.0059,0,0,0,0,0,0,0,0,-0.0117,-0.0116,-0.0099,-0.0098,-0.0097,-0.0083,-0.0085,-0.0071,-0.0082,-0.0089,-0.0082,-0.0082,-0.0069,-0.0068,-0.0066,-0.0051,-0.005,-0.0059,-0.0059,-0.0058,-0.0058,0,0,0,0,0,0,0,-0.0119,-0.0117,-0.0095,-0.0098,-0.0097,-0.0094,-0.0093,-0.0083,-0.0079,-0.0088,-0.0088,-0.0084,-0.0069,-0.0067,-0.0065,-0.005,-0.0059,-0.0058,-0.0058,-0.0058,-0.003,-0.003,0,0,0,0,0,0,-0.0119,-0.0117,-0.0096,-0.0094,-0.0107,-0.0093,-0.0092,-0.0089,-0.0079,-0.0078,-0.0084,-0.0084,-0.0068,-0.0066,-0.0064,-0.0044,-0.0058,-0.0057,-0.0057,-0.003,-0.003,-0.003,0,0,0,0,0,0,-0.0119,-0.0117,-0.0096,-0.0104,-0.0101,-0.0093,-0.0089,-0.0088,-0.0084,-0.0075,-0.0074,-0.008,-0.0068,-0.0066,-0.0055,-0.0044,-0.0057,-0.0056,-0.003,-0.003,-0.003,-0.0009,0,0,0,0,0,0,-0.012,-0.0117,-0.0116,-0.0104,-0.0101,-0.0087,-0.0089,-0.0088,-0.008,-0.008,-0.0072,-0.0071,-0.0068,-0.0057,-0.0055,-0.0043,-0.0055,-0.003,-0.003,-0.003,-0.0009,-0.0008,-0.0006,0,0,0,0,0,-0.0121,-0.0117,-0.0116,-0.0114,-0.01,-0.0087,-0.0085,-0.008,-0.008,-0.0077,-0.0072,-0.0071,-0.0053,-0.0056,-0.0053,-0.0041,-0.0031,-0.003,-0.003,-0.001,-0.0008,-0.0006,0,0,0,0,0,0,-0.0129,-0.0116,-0.0115,-0.0108,-0.0098,-0.0086,-0.0081,-0.0078,-0.0071,-0.0071,-0.0066,-0.0064,-0.0053,-0.0051,-0.0054,-0.0034,-0.0042,-0.0041,-0.0028,-0.0026,-0.0025,-0.0,-0.0055,0,0,0,0,0,-0.013,-0.0125,-0.0112,-0.0106,-0.0101,-0.0091,-0.0085,-0.008,-0.0072,-0.0069,-0.0062,-0.0056,-0.0049,-0.0041,-0.0038,-0.0021,-0.0011,-0.0014,-0.0012,-0.001,0.001,0.0029,0.0035,-0.0028,-0.0028,-0.0028,0,0,-0.0131,-0.0123,-0.0121,-0.0108,-0.01,-0.0084,-0.0088,-0.0077,-0.0061,-0.0067,-0.0048,-0.0051,-0.0046,-0.0032,-0.0026,-0.0027,0.001,-0.001,-0.0008,0.0012,0.003,0.0036,0.0042,-0.0028,-0.0028,-0.0028,0,0,-0.0127,-0.0124,-0.0116,-0.0105,-0.0091,-0.0081,-0.0077,-0.0062,-0.0055,-0.0038,-0.0041,-0.0033,-0.0022,-0.0013,-0.0008,0.0007,0.0014,0.0003,0.004,0.0057,0.0063,0.0068,0.0081,0.0087,0.001,0.001,0.001,0,-0.013,-0.0116,-0.0112,-0.0098,-0.0083,-0.0078,-0.0059,-0.0049,-0.0032,-0.0018,-0.0029,-0.0008,-0.0008,0.0017,0.0024,0.0014,0.0024,0.0032,0.0061,0.0067,0.0072,0.0083,0.009,0.0011,0.0011,0.0011,0.001,0,-0.0118,-0.0103,-0.0096,-0.0075,-0.0061,-0.0044,-0.0025,-0.001,-0.0002,0.0011,0.0032,0.0029,0.0045,0.0041,0.0042,0.0077,0.0071,0.0056,0.0059,0.008,0.009,0.0096,0.0012,0.0012,0.0012,0.0011,0,0,-0.013,-0.0094,-0.0091,-0.0075,-0.0044,-0.0033,-0.0,0.0032,0.0052,0.0064,0.009,0.0102,0.0101,0.0108,0.01,0.0122,0.0158,0.0114,0.0114,0.0132,0.02,0.0203,0.021,0.015,0.0152,0.0153,0.0189,0,-0.0119,-0.0088,-0.0071,-0.0037,-0.0016,0.0007,0.0034,0.0062,0.0082,0.0105,0.0116,0.0126,0.0126,0.0124,0.0151,0.0149,0.0179,0.0151,0.0173,0.0174,0.0179,0.0219,0.0157,0.0194,0.0196,0.0197,0.0197,0,-0.0112,-0.0089,-0.0048,-0.0013,-0.0003,0.0024,0.007,0.0092,0.0132,0.0139,0.0167,0.0166,0.0199,0.0183,0.0227,0.0209,0.0222,0.0222,0.0223,0.023,0.019,0.0171,0.0209,0.0208,0.0208,0.0207,0.0206,0,-0.0115,-0.0078,-0.0041,-0.0026,0.002,0.005,0.0071,0.0114,0.0132,0.0164,0.0171,0.0207,0.0212,0.0242,0.0262,0.0244,0.0308,0.0272,0.0291,0.029,0.0265,0.0259,0.032,0.032,0.032,0.032,0.032,0,-0.0105,-0.0081,-0.0036,-0.0011,0.0028,0.0053,0.0095,0.0119,0.0149,0.0172,0.019,0.021,0.023,0.0266,0.0283,0.032,0.0327,0.032,0.0311,0.027,0.0264,0.0269,0.0263,0.0322,0.0321,0.0321,0.0321,0,-0.0097,-0.0073,-0.0027,0.0024,0.0038,0.0071,0.0108,0.0124,0.0151,0.0181,0.0187,0.022,0.0272,0.0303,0.0344,0.0339,0.037,0.0383,0.0352,0.0336,0.0331,0.0325,0.0397,0.0398,0.0398,0.0399,0.0399,0,-0.009,-0.0055,0.0003,0.0024,0.0057,0.0095,0.011,0.0132,0.0146,0.0192,0.0203,0.026,0.0288,0.0355,0.0382,0.0426,0.0424,0.0416,0.0372,0.0361,0.0344,0.0337,0.0331,0.04,0.04,0.04,0.04,0,-0.0052,-0.0019,0.0018,0.005,0.0077,0.0094,0.0122,0.0136,0.0158,0.0174,0.0224,0.0262,0.0326,0.0368,0.0413,0.0438,0.0403,0.0422,0.042,0.0378,0.0366,0.0347,0.034,0.0402,0.0402,0.0402,0.0402,0,-0.0017,0.0009,0.0049,0.0075,0.0088,0.0095,0.0115,0.0136,0.0153,0.0202,0.0225,0.0293,0.033,0.0378,0.0421,0.045,0.0434,0.0392,0.0391,0.0389,0.0372,0.0354,0.0402,0,0,0,0,0,0.0021,0.0038,0.006,0.0084,0.0087,0.0093,0.0111,0.0125,0.0153,0.0185,0.0207,0.0272,0.0338,0.0372,0.0405,0.042,0.0435,0.0453,0.0384,0.0413,0.0411,0.0393,0,0,0,0,0,0,0.0039,0.007,0.0063,0.007,0.0082,0.0082,0.0095,0.012,0.0144,0.0182,0.0231,0.0247,0.0329,0.0332,0.04,0.041,0.0357,0.0492,0.0491,0.0414,0.0412,0.0411,0.0391,0,0,0,0,0]},{"header":{"parameterUnit":"m.s-1","parameterCategory":2,"la1":30.2991,"la2":30.254,"lo1":-89.0895,"lo2":-89.0444,"dy":0.0017,"dx":0.0017,"nx":28,"ny":28,"refTime":"2025-07-22T21:00:00:Z","depth":"4","parameterNumber":3,"parameterNumberName":"V-component_of_CURRENTS"},"data":[0,0,0,0,0,0,0,0,0,0,0,0,0,0,0,0,0,0,0,0,0,0,0,0,0,0,0,0,0,0,0,0,0,0,0,0,0,0,0,0,0,0,0,0,0,0,0,0,0,0,0,0,0,0,0,0,0,0,-0.0007,-0.0007,0,-0.0039,-0.004,-0.004,-0.0057,-0.0057,-0.0057,-0.0057,-0.0112,-0.0114,-0.0115,0,0,0,0,0,0,0,0,0,0,0,0,0,-0.001,-0.0009,-0.0007,-0.0007,-0.0007,-0.0039,-0.004,-0.004,-0.0057,-0.0057,-0.0057,-0.0057,-0.0112,-0.0113,-0.0115,0,0,0,0,0,0,0,0,0,0,0,0,0,-0.0022,-0.0009,-0.0007,-0.0019,-0.0021,-0.0039,-0.004,-0.004,-0.0057,-0.0057,-0.0057,-0.0057,-0.0111,-0.0113,-0.0115,-0.0129,0,0,-0.0122,-0.0123,0,0,0,0,0,0,0,0,-0.0021,-0.0022,-0.0017,-0.0019,-0.002,-0.0044,-0.0061,-0.0071,-0.0057,-0.0043,-0.0057,-0.0057,-0.0091,-0.0095,-0.0101,-0.0132,-0.0134,-0.0122,-0.0124,-0.0125,-0.0125,0,0,0,0,0,0,0,-0.002,-0.0021,-0.002,-0.0017,-0.0019,-0.0041,-0.0042,-0.0063,-0.0067,-0.0044,-0.0046,-0.0049,-0.0092,-0.0099,-0.0103,-0.0135,-0.0122,-0.0124,-0.0126,-0.0126,-0.0175,-0.0175,0,0,0,0,0,0,-0.0013,-0.002,-0.0019,-0.0021,-0.0021,-0.0041,-0.0042,-0.0036,-0.0067,-0.0071,-0.0049,-0.005,-0.0095,-0.01,-0.0105,-0.0089,-0.0125,-0.0127,-0.0128,-0.0175,-0.0175,-0.0175,0,0,0,0,0,0,-0.0013,-0.0012,-0.0017,-0.0022,-0.0024,-0.004,-0.0034,-0.0037,-0.0047,-0.007,-0.0075,-0.0056,-0.0095,-0.0102,-0.0126,-0.0092,-0.0128,-0.013,-0.0175,-0.0175,-0.0175,-0.0078,0,0,0,0,0,0,-0.0013,-0.0012,-0.0006,-0.0021,-0.0023,-0.0021,-0.0034,-0.0038,-0.0049,-0.005,-0.0078,-0.0083,-0.0096,-0.0123,-0.0128,-0.0096,-0.0131,-0.0175,-0.0175,-0.0175,-0.0082,-0.0075,-0.007,0,0,0,0,0,-0.0012,0.0001,-0.0005,-0.0006,-0.0014,-0.002,-0.0023,-0.0036,-0.0049,-0.0047,-0.0073,-0.0082,-0.0126,-0.0125,-0.0131,-0.0098,-0.0175,-0.0175,-0.0175,-0.0084,-0.0076,-0.007,0,0,0,0,0,0,0.0,0.0,-0.0007,0.0005,-0.0006,-0.0023,-0.0022,-0.0038,-0.0057,-0.0061,-0.0088,-0.0095,-0.0102,-0.0126,-0.0124,-0.0116,-0.0149,-0.0151,-0.0078,-0.0071,-0.0065,-0.0062,-0.0133,0,0,0,0,0,0.0006,0.002,0.0007,0.0016,0.0012,-0.0009,-0.0015,-0.0025,-0.0044,-0.0052,-0.0073,-0.0096,-0.0106,-0.011,-0.0131,-0.0131,-0.0166,-0.0115,-0.0109,-0.0104,-0.0108,-0.0138,-0.0135,-0.0175,-0.0175,-0.0175,0,0,0.0013,0.0014,0.0021,0.0019,0.001,0.0027,-0.0012,-0.0017,0.0003,-0.0056,-0.0045,-0.0081,-0.0107,-0.01,-0.0104,-0.0113,-0.011,-0.0103,-0.0098,-0.0106,-0.0138,-0.0134,-0.013,-0.0175,-0.0175,-0.0175,0,0,0.0048,0.0035,0.0065,0.0062,0.0054,0.0044,0.0043,0.0023,0.002,0.0013,-0.0016,-0.0033,-0.006,-0.0057,-0.0061,-0.0039,-0.0084,-0.0052,-0.0005,-0.0033,-0.003,-0.0027,-0.0058,-0.0059,-0.0039,-0.0039,-0.0038,0,0.0056,0.0081,0.0069,0.0098,0.0086,0.0058,0.0071,0.0083,0.0059,0.0031,0.0029,-0.0032,-0.0028,-0.0029,-0.0001,-0.0018,-0.0061,-0.0022,-0.0023,-0.0021,-0.002,-0.0052,-0.0055,-0.0034,-0.0034,-0.0035,-0.0035,0,0.0123,0.013,0.0142,0.0171,0.0166,0.0162,0.0167,0.0157,0.0133,0.0116,0.008,0.0069,0.0017,0.0043,0.0041,0.0047,0.0006,-0.0015,-0.0034,-0.001,-0.0046,-0.005,-0.0027,-0.0029,-0.003,-0.0032,0,0,0.0151,0.018,0.0181,0.0152,0.0184,0.0153,0.0208,0.0185,0.0141,0.016,0.0097,0.0147,0.0087,0.0078,0.0065,0.0081,0.0092,0.0046,0.0043,0.0029,0.0011,0.0028,0.0024,0.0059,0.0058,0.0058,-0.0013,0,0.0187,0.0206,0.0238,0.0225,0.02,0.0195,0.0209,0.0192,0.0164,0.0104,0.0115,0.0054,0.012,0.0061,0.0101,0.006,0.0082,0.0112,-0.0024,-0.0027,-0.0004,0.0021,0.0057,-0.0016,-0.0017,-0.0018,-0.0018,0,0.0233,0.0213,0.0212,0.0142,0.0132,0.014,0.0054,0.0066,0.0034,0.0,-0.0019,-0.0047,-0.0019,0.0012,0.0026,0.0027,0.0036,0.0038,0.0033,0.0009,-0.0018,-0.0051,-0.0027,-0.0026,-0.0025,-0.0025,-0.0024,0,0.0167,0.0173,0.0137,0.013,0.0094,0.0068,0.004,0.0009,-0.0031,-0.0088,-0.0148,-0.0135,-0.0171,-0.0132,-0.0072,-0.0055,-0.0079,-0.0069,-0.0038,-0.0039,-0.0075,-0.0078,-0.0057,-0.0057,-0.0057,-0.0057,-0.0056,0,0.0149,0.0108,0.0084,0.0049,-0.005,-0.0039,-0.0137,-0.016,-0.0203,-0.0238,-0.0231,-0.0253,-0.0211,-0.0202,-0.0132,-0.0093,-0.0126,-0.003,-0.0052,-0.0033,-0.003,-0.0078,-0.0079,-0.0059,-0.0059,-0.0058,-0.0058,0,0.0074,0.0088,0.0009,-0.0054,-0.0082,-0.0169,-0.0236,-0.0281,-0.033,-0.0372,-0.0389,-0.038,-0.0352,-0.0306,-0.0271,-0.0195,-0.0154,-0.0132,-0.0125,-0.0147,-0.0083,-0.0079,-0.0121,-0.0121,-0.0121,-0.0121,-0.0121,0,0.0035,-0.0004,-0.0095,-0.013,-0.0157,-0.0261,-0.029,-0.0344,-0.0348,-0.0402,-0.0391,-0.0428,-0.0389,-0.0336,-0.0288,-0.0218,-0.0175,-0.0174,-0.0086,-0.007,-0.0088,-0.0084,-0.008,-0.0121,-0.0121,-0.0121,-0.0121,0,-0.0071,-0.0089,-0.0154,-0.0215,-0.0257,-0.0316,-0.0347,-0.0377,-0.0377,-0.0436,-0.0376,-0.0357,-0.035,-0.0295,-0.0277,-0.0197,-0.0185,-0.0172,-0.017,-0.0088,-0.0071,-0.0087,-0.0084,-0.012,-0.012,-0.012,-0.012,0,-0.0155,-0.0212,-0.025,-0.0305,-0.033,-0.031,-0.0359,-0.0316,-0.0347,-0.0348,-0.0319,-0.0317,-0.0322,-0.0286,-0.0238,-0.0204,-0.0166,-0.0111,-0.0112,-0.0112,-0.0071,-0.0044,-0.0103,0,0,0,0,0,-0.024,-0.0271,-0.0316,-0.035,-0.0344,-0.0345,-0.0336,-0.0345,-0.0351,-0.0278,-0.0295,-0.0251,-0.0214,-0.0224,-0.018,-0.0251,-0.0189,-0.02,-0.0132,-0.0119,-0.0119,-0.0068,0,0,0,0,0,0,-0.0289,-0.0344,-0.0335,-0.0335,-0.0338,-0.0324,-0.0307,-0.0305,-0.0258,-0.026,-0.0238,-0.0232,-0.0209,-0.0242,-0.0182,-0.0183,-0.0125,-0.0199,-0.0197,-0.0119,-0.0119,-0.0119,-0.0066,0,0,0,0,0]}]]